Location: Lecco
(45.8566°N, 9.3977°E)
Time: 12:19:43
(UTC+02:00)

Vanguard 2 Rocket - Pass Details

Date: 17 August 2020
Orbit: 554 x 3326 km, 32.9° (Epoch: 24 September)

Event Time Altitude Azimuth Distance (km) Brightness Sun altitude
Rises 18:17:19 0° 237° (WSW) 2,963 10.5 21.4°
Reaches altitude 10° 18:19:41 10° 222° (SW) 2,236 9.7 20.9°
Maximum altitude 18:23:50 24° 168° (SSE) 1,812 8.5 20.2°
Drops below altitude 10° 18:29:46 10° 117° (ESE) 3,306 9.3 19.2°
Sets 18:34:09 0° 106° (ESE) 4,797 10.0 18.4°
